Location: Noordwijk
(52.2400°N, 4.4500°E)
Time: 20:16:33
(UTC+00:00)

FO-29 - Pass Details

Date: 03 December 2022
Orbit: 799 x 1322 km, 98.5° (Epoch: 31 January)

Event Time Altitude Azimuth Distance (km) Brightness Sun altitude
Rises 16:36:11 0° 164° (SSE) 4,312 13.0 -9.3°
Reaches altitude 10° 16:38:55 10° 165° (SSE) 3,345 12.4 -9.7°
Maximum altitude 16:46:49 84° 254° (WSW) 1,302 10.2 -10.8°
Drops below altitude 10° 16:54:18 10° 344° (NNW) 3,175 12.1 -11.8°
Sets 16:56:50 0° 345° (NNW) 4,084 12.7 -12.2°
